| time (UTC) | temp C | wind direction | speed KPH | gust KPH | rain 1hr cm | rain 24hr cm | rain mn cm | humidity % | barometer mb |
| 20260508114507 | 0 | 99 | 3.2 | 4.8 | 0.00 | 0.00 | 0.00 | 86 | 1014.7 |
| 20260508113103 | 1 | 99 | 1.6 | 4.8 | 0.00 | 0.00 | 0.00 | 84 | 1014.9 |
| 20260508111553 | 2 | 84 | 1.6 | 3.2 | 0.00 | 0.00 | 0.00 | 84 | 1014.9 |
| 20260508110052 | 2 | 351 | 0.0 | 6.4 | 0.00 | 0.00 | 0.00 | 83 | 1015.0 |
| 20260508104551 | 1 | 23 | 0.0 | 4.8 | 0.00 | 0.00 | 0.00 | 77 | 1014.9 |
| 20260508103049 | 2 | 190 | 0.0 | 3.2 | 0.00 | 0.00 | 0.00 | 81 | 1014.5 |
| 20260508101545 | 2 | 190 | 0.0 | 4.8 | 0.00 | 0.00 | 0.00 | 78 | 1014.2 |
| 20260508100044 | 2 | 190 | 1.6 | 4.8 | 0.00 | 0.00 | 0.00 | 77 | 1014.1 |
| 20260508094604 | 2 | 190 | 1.6 | 4.8 | 0.00 | 0.00 | 0.00 | 77 | 1014.2 |
| 20260508093040 | 2 | 190 | 1.6 | 3.2 | 0.00 | 0.00 | 0.00 | 78 | 1014.2 |
| 20260508091542 | 2 | 190 | 1.6 | 4.8 | 0.00 | 0.00 | 0.00 | 80 | 1014.5 |
| 20260508090038 | 2 | 190 | 0.0 | 3.2 | 0.00 | 0.00 | 0.00 | 79 | 1014.7 |
| 20260508084534 | 3 | 190 | 0.0 | 4.8 | 0.00 | 0.00 | 0.00 | 76 | 1014.6 |
| 20260508083034 | 3 | 190 | 0.0 | 4.8 | 0.00 | 0.00 | 0.00 | 72 | 1014.8 |
| 20260508081556 | 3 | 188 | 1.6 | 6.4 | 0.00 | 0.00 | 0.00 | 72 | 1014.8 |
| 20260508080032 | 3 | 188 | 0.0 | 3.2 | 0.00 | 0.00 | 0.00 | 75 | 1014.9 |
| 20260508074531 | 3 | 188 | 3.2 | 4.8 | 0.00 | 0.00 | 0.00 | 71 | 1014.9 |
| 20260508073032 | 2 | 188 | 3.2 | 6.4 | 0.00 | 0.00 | 0.00 | 74 | 1015.1 |
| 20260508071538 | 3 | 190 | 3.2 | 6.4 | 0.00 | 0.00 | 0.00 | 74 | 1015.5 |
| 20260508070024 | 3 | 192 | 3.2 | 6.4 | 0.00 | 0.00 | 0.00 | 74 | 1015.5 |
| 20260508064521 | 4 | 115 | 1.6 | 8.0 | 0.00 | 0.00 | 0.00 | 72 | 1015.5 |
| 20260508063031 | 5 | 194 | 3.2 | 6.4 | 0.00 | 0.00 | 0.00 | 70 | 1015.4 |
| 20260508061520 | 5 | 249 | 0.0 | 6.4 | 0.00 | 0.00 | 0.00 | 69 | 1015.5 |
| 20260508060015 | 3 | 168 | 1.6 | 8.0 | 0.00 | 0.00 | 0.00 | 78 | 1015.5 |
| 20260508054516 | 4 | 238 | 1.6 | 4.8 | 0.00 | 0.00 | 0.00 | 77 | 1015.6 |
| 20260508053016 | 5 | 238 | 3.2 | 4.8 | 0.00 | 0.00 | 0.00 | 73 | 1015.6 |
| 20260508051514 | 5 | 239 | 1.6 | 6.4 | 0.00 | 0.00 | 0.00 | 66 | 1015.7 |
| 20260508050016 | 5 | 201 | 1.6 | 4.8 | 0.00 | 0.00 | 0.00 | 70 | 1016.0 |
| 20260508044513 | 5 | 214 | 0.0 | 6.4 | 0.00 | 0.00 | 0.00 | 68 | 1016.0 |
| 20260508043012 | 5 | 194 | 1.6 | 8.0 | 0.00 | 0.00 | 0.00 | 69 | 1015.8 |
| 20260508041512 | 5 | 167 | 3.2 | 8.0 | 0.00 | 0.00 | 0.00 | 70 | 1015.8 |
| 20260508040011 | 5 | 221 | 3.2 | 8.0 | 0.00 | 0.00 | 0.00 | 74 | 1015.7 |
| 20260508034512 | 4 | 167 | 3.2 | 6.4 | 0.00 | 0.00 | 0.00 | 83 | 1015.8 |
| 20260508033010 | 4 | 167 | 4.8 | 4.8 | 0.00 | 0.00 | 0.00 | 83 | 1015.7 |
| 20260508031510 | 5 | 170 | 1.6 | 4.8 | 0.00 | 0.00 | 0.00 | 84 | 1015.6 |
| 20260508030010 | 5 | 170 | 1.6 | 3.2 | 0.00 | 0.00 | 0.00 | 84 | 1015.4 |
| 20260508024512 | 5 | 170 | 0.0 | 6.4 | 0.00 | 0.00 | 0.00 | 83 | 1015.3 |
| 20260508023008 | 4 | 196 | 3.2 | 9.7 | 0.00 | 0.00 | 0.00 | 85 | 1015.0 |
| 20260508021507 | 5 | 111 | 0.0 | 3.2 | 0.00 | 0.00 | 0.00 | 85 | 1015.1 |
| 20260508020008 | 5 | 96 | 1.6 | 4.8 | 0.00 | 0.00 | 0.00 | 84 | 1014.9 |
| 20260508014509 | 5 | 84 | 0.0 | 4.8 | 0.00 | 0.00 | 0.00 | 84 | 1015.0 |
| 20260508013006 | 6 | 77 | 1.6 | 14.5 | 0.00 | 0.00 | 0.00 | 78 | 1014.9 |
| 20260508011506 | 7 | 261 | 3.2 | 14.5 | 0.00 | 0.00 | 0.00 | 73 | 1015.2 |
| 20260508010005 | 9 | 189 | 1.6 | 14.5 | 0.00 | 0.00 | 0.00 | 60 | 1015.0 |
| 20260508004505 | 10 | 205 | 3.2 | 9.7 | 0.00 | 0.00 | 0.00 | 55 | 1014.4 |
| 20260508003005 | 11 | 360 | 1.6 | 11.3 | 0.00 | 0.00 | 0.00 | 55 | 1014.5 |
| 20260508001502 | 11 | 58 | 4.8 | 12.9 | 0.00 | 0.00 | 0.00 | 55 | 1014.9 |
| 20260508000100 | 11 | 360 | 1.6 | 4.8 | 0.00 | 0.00 | 0.00 | 55 | 1015.1 |
| 20260507234559 | 11 | 26 | 1.6 | 14.5 | 0.00 | 0.00 | 0.00 | 54 | 1015.3 |
| 20260507233058 | 11 | 36 | 3.2 | 12.9 | 0.00 | 0.00 | 0.00 | 51 | 1015.4 |
| 20260507231559 | 11 | 44 | 3.2 | 9.7 | 0.00 | 0.00 | 0.00 | 51 | 1015.4 |
| 20260507224600 | 12 | 46 | 3.2 | 16.1 | 0.00 | 0.00 | 0.00 | 48 | 1015.1 |
| 20260507223056 | 13 | 33 | 3.2 | 17.7 | 0.00 | 0.00 | 0.00 | 48 | 1015.4 |
| 20260507221552 | 13 | 21 | 3.2 | 19.3 | 0.00 | 0.00 | 0.00 | 52 | 1015.7 |
| 20260507220049 | 12 | 351 | 3.2 | 16.1 | 0.00 | 0.00 | 0.00 | 51 | 1015.9 |
| 20260507214601 | 12 | 315 | 3.2 | 8.0 | 0.00 | 0.00 | 0.00 | 49 | 1016.1 |
| 20260507213045 | 12 | 99 | 3.2 | 16.1 | 0.00 | 0.00 | 0.00 | 55 | 1016.3 |
| 20260507211542 | 12 | 355 | 4.8 | 12.9 | 0.00 | 0.00 | 0.00 | 51 | 1016.6 |
| 20260507210040 | 11 | 21 | 1.6 | 6.4 | 0.00 | 0.00 | 0.00 | 54 | 1017.2 |
| 20260507204537 | 11 | 309 | 3.2 | 14.5 | 0.00 | 0.00 | 0.00 | 54 | 1017.7 |
| 20260507203040 | 10 | 355 | 1.6 | 16.1 | 0.00 | 0.00 | 0.00 | 58 | 1017.9 |
| 20260507201531 | 10 | 180 | 4.8 | 14.5 | 0.00 | 0.00 | 0.00 | 57 | 1018.3 |
| 20260507200029 | 9 | 336 | 1.6 | 14.5 | 0.00 | 0.00 | 0.00 | 61 | 1018.5 |
| 20260507194526 | 8 | 49 | 1.6 | 9.7 | 0.00 | 0.00 | 0.00 | 60 | 1018.8 |
| 20260507193023 | 8 | 205 | 3.2 | 8.0 | 0.00 | 0.00 | 0.00 | 60 | 1019.1 |
| 20260507191518 | 7 | 221 | 1.6 | 6.4 | 0.00 | 0.00 | 0.00 | 58 | 1019.7 |
| 20260507190016 | 8 | 86 | 1.6 | 8.0 | 0.00 | 0.00 | 0.00 | 58 | 1020.0 |
| 20260507184513 | 7 | 243 | 1.6 | 6.4 | 0.00 | 0.10 | 0.00 | 59 | 1020.3 |
| 20260507183013 | 7 | 53 | 0.0 | 6.4 | 0.00 | 0.10 | 0.00 | 59 | 1020.6 |
| 20260507181508 | 7 | 241 | 1.6 | 6.4 | 0.00 | 0.10 | 0.00 | 58 | 1021.0 |
| 20260507180006 | 6 | 227 | 1.6 | 8.0 | 0.00 | 0.10 | 0.00 | 57 | 1021.3 |
| 20260507174502 | 6 | 35 | 0.0 | 8.0 | 0.00 | 0.25 | 0.00 | 57 | 1021.5 |
| 20260507173103 | 6 | 65 | 3.2 | 11.3 | 0.00 | 0.25 | 0.00 | 61 | 1021.6 |
| 20260507171600 | 5 | 107 | 0.0 | 8.0 | 0.00 | 0.25 | 0.00 | 59 | 1021.8 |
| 20260507164559 | 3 | 161 | 1.6 | 8.0 | 0.00 | 0.48 | 0.00 | 63 | 1022.4 |
| 20260507163046 | 3 | 76 | 1.6 | 11.3 | 0.00 | 0.48 | 0.00 | 61 | 1022.7 |
| 20260507161543 | 2 | 319 | 0.0 | 6.4 | 0.00 | 0.48 | 0.00 | 65 | 1022.9 |
| 20260507160040 | 2 | 122 | 1.6 | 8.0 | 0.00 | 0.48 | 0.00 | 65 | 1022.9 |
| 20260507154542 | 2 | 306 | 0.0 | 4.8 | 0.00 | 0.51 | 0.00 | 65 | 1023.0 |
| 20260507153034 | 2 | 342 | 1.6 | 6.4 | 0.00 | 0.51 | 0.00 | 67 | 1023.0 |
| 20260507151529 | 1 | 331 | 1.6 | 4.8 | 0.00 | 0.51 | 0.00 | 67 | 1023.2 |
| 20260507150027 | 0 | 215 | 0.0 | 6.4 | 0.00 | 0.51 | 0.00 | 68 | 1023.3 |
| 20260507144529 | 0 | 26 | 0.0 | 6.4 | 0.00 | 0.53 | 0.00 | 81 | 1023.4 |
| 20260507143025 | 0 | 306 | 0.0 | 3.2 | 0.00 | 0.53 | 0.00 | 84 | 1023.6 |
| 20260507141515 | -1 | 198 | 1.6 | 3.2 | 0.00 | 0.53 | 0.00 | 86 | 1023.7 |
| 20260507140012 | -2 | 198 | 0.0 | 1.6 | 0.00 | 0.53 | 0.00 | 90 | 1024.0 |
| 20260507134511 | -3 | 198 | 0.0 | 1.6 | 0.00 | 0.53 | 0.00 | 92 | 1023.7 |
| 20260507133005 | -3 | 198 | 0.0 | 1.6 | 0.00 | 0.53 | 0.00 | 91 | 1023.5 |
| 20260507131504 | -4 | 198 | 0.0 | 3.2 | 0.00 | 0.53 | 0.00 | 91 | 1023.7 |
| 20260507130004 | -4 | 198 | 0.0 | 1.6 | 0.00 | 0.53 | 0.00 | 92 | 1023.4 |
| 20260507124505 | -5 | 198 | 0.0 | 0.0 | 0.00 | 0.53 | 0.00 | 91 | 1023.4 |
| 20260507123006 | -5 | 198 | 0.0 | 0.0 | 0.00 | 0.53 | 0.00 | 92 | 1023.4 |
| 20260507121503 | -5 | 200 | 0.0 | 3.2 | 0.00 | 0.53 | 0.00 | 91 | 1023.5 |
| 20260507120110 | -5 | 202 | 0.0 | 1.6 | 0.00 | 0.53 | 0.00 | 92 | 1023.5 |